Regional Weather Roundup
Issued by NWS Wakefield, VA

Current Version | Previous Version | Text Only | Print | Product List | Glossary On
Versions: 1 2 3 4 5 6 7 8 9 10 11 12 13 14 15 16 17 18 19 20 21 22 23 24 25 26 27 28 29 30 31 32 33 34 35 36 37 38 39 40 41 42 43 44 45 46 47 48 49 50
000 ASUS41 KAKQ 182215 RWRAKQ REGIONAL WEATHER ROUNDUP NATIONAL WEATHER SERVICE WAKEFIELD VA 600 PM EDT SUN APR 18 2021 Note: "fair" indicates few or no clouds below 12,000 feet with no significant weather and/or obstructions to visibility. * = Denotes station may not report precipitation (e.g., rain,snow,etc.), thunder or fog. VAZ042-051-052>054-056-182300- NORTHERN VIRGINIA CITY SKY/WX TMP DP RH WIND PRES REMARKS WASH NATIONAL CLOUDY 63 37 38 W7 29.87R DULLES PTSUNNY 62 39 42 W9 29.87R FORT BELVOIR CLOUDY 63 38 40 W7 29.87R QUANTICO CLOUDY 64 40 41 NW7 29.88R FREDERICKSBRG* CLOUDY 64 40 41 N7 29.86R STAFFORD* CLOUDY 63 33 32 NW7 29.91R WARRENTON CLOUDY 63 37 38 N3 29.87R CULPEPER* CLOUDY 63 41 43 CALM 29.88S MANASSAS* CLOUDY 61 42 49 W5 29.88R LEESBURG* CLOUDY 61 41 48 NW5 29.88S WINCHESTER CLOUDY 55 39 54 S5 29.86R FRONT ROYAL* CLOUDY 59 41 51 W3 29.86F LURAY* MOCLDY 55 43 62 N5 29.87S $$ VAZ048-049-060>072-079>083-182300- CENTRAL AND SOUTH CENTRAL VIRGINIA CITY SKY/WX TMP DP RH WIND PRES REMARKS RICHMOND PTSUNNY 67 42 40 SE3 29.85R CHESTERFIELD* NOT AVBL PETERSBURG* CLOUDY 67 38 33 CALM 29.86R HANOVER PTSUNNY 68 39 34 VRB5 29.86R TAPPAHANNOCK* PTSUNNY 62 47 58 E5 29.88R QUINTON* CLOUDY 66 41 39 CALM 29.85R CHARLOTTSVILLE MOSUNNY 64 40 41 CALM 29.85S GORDONSVILLE* CLOUDY 64 41 43 NE7 29.86R ORANGE* CLOUDY 61 41 48 N3 29.87R LOUISA* PTSUNNY 62 42 47 N9 29.90R BUMPASS* CLOUDY 63 40 42 NW5 29.86R FARMVILLE* CLOUDY 66 41 40 SW3 29.84R CREWE* CLOUDY 67 32 27 S3 29.85R FORT PICKETT* CLOUDY 68 40 36 W6 29.86R CHASE CITY* FAIR 66 40 38 CALM 29.85S CLARKSVILLE* MOCLDY 66 39 37 CALM 29.85R SOUTH HILL* PTSUNNY 66 38 34 CALM 29.91R LAWRENCEVILLE* CLOUDY 68 40 36 SW5 29.86R EMPORIA* PTSUNNY 69 41 36 SW8 29.87R $$ VAZ088>098-182300- SOUTHEAST VIRGINIA CITY SKY/WX TMP DP RH WIND PRES REMARKS NORFOLK MOSUNNY 65 40 39 SE9 29.87R VIRGINIA BEACH PTSUNNY 63 45 51 SE9 29.88R NORFOLK NAVAL MOSUNNY 65 40 39 E6 29.88R WEST POINT* PTSUNNY 63 47 55 E5 29.87R SALUDA* MOCLDY 59 47 64 E5 29.88R NEWPORT NEWS MOSUNNY 61 43 51 E10 29.87R LANGLEY AFB MOSUNNY 63 46 52 SE12 29.86S FORT EUSTIS PTSUNNY 65 44 47 SE6 29.85R WILLIAMSBURG* MOSUNNY 64 50 59 E8 29.87S HR EXEC AP* MOCLDY 64 44 48 SE8 29.88R FRANKLIN* CLOUDY 66 46 49 E9 29.86R US460-WAKEFLD CLOUDY 65 46 50 E5 29.86R $$ VAZ020-022-025-037-045-182300- WEST CENTRAL AND SOUTHWEST VIRGINIA CITY SKY/WX TMP DP RH WIND PRES REMARKS STAUNTON* PTSUNNY 60 39 46 CALM 29.89R WAYNESBORO* CLOUDY 59 40 49 N8 29.87R HOT SPRINGS VA PTSUNNY 52 29 41 W9 29.89R LYNCHBURG CLOUDY 67 39 35 CALM 29.85R DANVILLE PTSUNNY 70 39 32 W8 29.84S SOUTH BOSTON* FAIR 69 36 29 CALM 29.85R MARTINSVILLE PTSUNNY 66 38 35 CALM 29.87R ROANOKE CLOUDY 65 36 34 NW9 29.87R BLACKSBURG PTSUNNY 61 35 37 W3 29.90R DUBLIN* CLOUDY 60 35 40 W10 29.89R MARION* PTSUNNY 58 37 46 W7 29.91S HILLSVILLE* MOSUNNY 58 32 37 NW7 29.86S RICHLANDS* CLOUDY 7 -32 15 NW6 29.91R WISE* PTSUNNY 54 32 43 W9 29.91S ABINGDON* MOSUNNY 61 28 27 NW9 29.89S $$ MDZ021>025-VAZ099-100-182300- SOUTHERN MARYLAND AND THE DELMARVA PENINSULA CITY SKY/WX TMP DP RH WIND PRES REMARKS PATUXENT RIVER PTSUNNY 60 50 69 SE10 29.86S BAY BRIDGE APT NOT AVBL LEONARDTOWN NOT AVBL DOVER SUNNY 62 40 44 S5 29.84R GEORGETOWN MOSUNNY 67 33 28 VRB7 29.86R EASTON MOSUNNY 64 36 34 CALM 29.90R CAMBRIDGE SUNNY 64 39 39 CALM 29.87S SALISBURY CLOUDY 66 36 32 VRB6 29.86S TANGIER CLOUDY 61 46 56 SE6 29.88S OCEAN CITY SUNNY 55 47 74 SE10 29.89R WALLOPS ISLAND MOSUNNY 64 42 44 VRB6 29.87S ACCOMACK* CLOUDY N/A N/A N/A CALM 29.89R $$ NCZ012>017-030>032-182300- NORTH CENTRAL AND EASTERN NORTH CAROLINA CITY SKY/WX TMP DP RH WIND PRES REMARKS ROANOKE RAPIDS MOCLDY 64 52 63 W3 29.86R RALEIGH PTSUNNY 68 42 38 W6 29.85R ELIZABETH CITY CLOUDY 63 47 55 E10 29.87R AHOSKIE* PTSUNNY 69 44 41 SW3 29.85S EDENTON* CLOUDY 65 55 68 E9 29.87R CURRITUCK* PTSUNNY 60 49 67 NE9 29.88R KILL DEVIL HLS SUNNY 58 46 63 E6 29.87S MANTEO PTSUNNY 60 47 63 E8 29.88S CAPE HATTERAS CLOUDY 68 47 46 E5 29.85S TARBORO* MOCLDY 69 44 40 CALM 29.85R GOLDSBORO PTSUNNY 73 44 36 NW8 29.81R WASHINGTON CLOUDY 68 49 51 SE6 29.85R GREENVILLE SUNNY 72 43 35 CALM 29.87R NEW BERN SUNNY 70 47 43 SE7 29.84S WILMINGTON MOSUNNY 70 56 61 SE9 29.82R $$ VAZ048-182300- ELSEWHERE CITY SKY/WX TMP DP RH WIND PRES REMARKS HARRISBURG PA PTSUNNY 63 36 36 W8 29.83R BALTIMORE CLOUDY 63 36 36 W9 29.85R ANNAPOLIS PTSUNNY 60 45 57 SE8 29.85S ANDREWS AFB SUNNY 62 37 40 W9 29.86R PHILADELPHIA PTSUNNY 63 36 36 NW8 29.84R HENDERSON NC MOSUNNY 66 38 35 W3 29.86R GREENSBORO MOSUNNY 66 36 32 W3 29.84S ROCKY MOUNT CLOUDY 71 41 33 NW8 29.85R $$ VAZ100-182300- MARINE STATION/POSITION TIME TEMP WIND PRES WAVE SWELL AIR SEA DIR/SP/G HT/PER HT/PER (UTC) (F) (DEG/KT/KT) (MB) (FT/S) (FT/S) CAPE MAY NJ 2124 55 55 180/ 10/ 14 1011.2 LEWES DE 2124 58 56 180/ 9/ 12 1011.6 15NM E FENWICK I 2150 N/A 2/11 OCEAN-CITY-INLET 2124 55 53 140/ 6/ 10 1012.6 44089 WALLOPS IS 2156 54 N/A 2/10 2/11 WACHAPREAGUE VA 2124 61 67 170/ 6/ 8 1011.8 THOMAS POINT MD 2200 58 55 150/ 2/ 2 1012.2R GOOSES REEF MD 2148 56 57 290/ 6/ 6 1011.9S 0 COVE POINT MD 2124 58 140/ 9/ 11 1011.1 SOLOMONS ISLAND 2124 60 59 130/ 8/ 9 1010.9S BISHOPS HEAD MD 2124 61 64 230/ 5/ 5 1011.3 PINEY POINT MD 2124 330/ 6/ 7 N/A POTOMAC MD 2154 59 59 150/ 8/ 10 1011.8R CAMBRIDGE MD 2124 360/ 4/ 5 N/A LEWISETTA VA 2124 61 60 110/ 5/ 6 1011.3 RAPPAHANNOCK LGT 2124 20/ 7/ 9 1012.3 YORK RVR RNG VA 2124 60 130/ 10/ 11 N/A YORKTOWN VA 2124 61 60 100/ 11/ 12 1011.1 DOMINION TERM VA 2124 65 40/ 2/ 7 1011.5 KIPTOPEKE VA 2124 59 130/ 8/ 12 N/A CHES BAY BRIDGE 2124 59 130/ 11/ 13 1010.8 CAPE HENRY VA 2124 59 120/ 9/ 12 1012.1 WILLOUBY STN VA 2124 61 90/ 14/ 15 1010.8 S CRANEY ISL VA 2124 66 270/ 1/ 6 1011.0 CAPE HENRY BUOY 2156 55 N/A 1/10 64NM E OF VA BCH 2150 54 40/ 10/ 12 1012.1R 2/10 2/10 DUCK PIER NC 2124 58 80/ 12/ 14 1011.3 44100 DUCK FRF 2156 54 N/A 2/10 2/11 44056 DUCK FRF 2156 58 N/A 2/11 2/11 OREGON INLET NC 2118 60 61 20/ 5/ 6 1011.5 HATTERAS NC 2124 66 65 90/ 4/ 7 1010.9 CAPE LOOKOUT NC 2200 66 50/ 11/ 12 1010.6R $$

USA.gov is the U.S. government's official web portal to all federal, state and local government web resources and services.